Regional Weather Roundup
Issued by NWS Binghamton, NY

Home | Current Version | Previous Version | Text Only | Print | Product List | Glossary On
Versions: 1 2 3 4 5 6 7 8 9 10 11 12 13 14 15 16 17 18 19 20 21 22 23 24 25 26 27 28
000
ASUS41 KBGM 010610
RWRBGM

REGIONAL WEATHER ROUNDUP
NATIONAL WEATHER SERVICE BINGHAMTON NY
200 AM EDT SUN MAY 01 2016

Note: "fair" indicates few or no clouds below 12,000 feet with no
significant weather and/or obstructions to visibility.

* = Station(s) that does not report precipitation, such as rain,
snow, etc, also no thunder or fog.

NYZ009-015>018-022>025-036-037-044>046-055>057-062-010700
...Central New York...

CITY           SKY/WX    TMP DP  RH WIND       PRES   REMARKS
Binghamton     LGT RAIN  48  40  73 S7        30.11F
Cortland       CLOUDY    50  41  71 S3        30.11S
Dansville      LGT RAIN  50  44  80 S3        30.07F
Elmira         LGT RAIN  50  43  77 VRB3      30.09F
Ithaca         CLOUDY    50  41  71 SE10      30.11F
Hamilton       CLOUDY    48  43  81 SE3       30.12F
Hornell        LGT RAIN  46  45  93 SE8       30.09F
Monticello     PTCLDY    46  41  81 S7        30.19S
Norwich        CLOUDY    52  41  66 CALM      30.14S
Penn Yan       CLOUDY    50  42  74 SE5       30.09F
Rome           CLOUDY    51  42  71 E3        30.14F
Sidney         CLOUDY    55  46  71 CALM      30.13F
Syracuse       CLOUDY    51  42  71 E6        30.11F
$$

PAZ038>040-043-044-047-048-072-010700
...Northeast Pennsylvania...

CITY           SKY/WX    TMP DP  RH WIND       PRES   REMARKS
Hazleton       DRIZZLE   46  45  93 SE5       30.17R
Scranton       LGT RAIN  50  44  80 NW5       30.15S
$$
&&
KEY
WCI = Wind Chill Index
VSB = Visibility
HX  = Heat Index
$$




USA.gov is the U.S. government's official web portal to all federal, state and local government web resources and services.